Location: Kailua
(21.4020°N, 157.7390°W)
Time: 14:15:42
(UTC-10:00)

Daily predictions for brighter satellites

Satellite Brightness Start Highest point End
(mag) Time Altitude Azimuth Time Altitude Azimuth Time Altitude Azimuth
Meteor 2-3 Rocket 3.7 19:28:00 10° S 19:33:37 75° E 19:39:11 10° N
Cosmos 1624 Rocket 4.0 19:29:47 10° S 19:35:01 82° ESE 19:40:19 10° NNE
Cosmos 1340 Rocket 2.7 19:33:05 10° S 19:37:03 82° E 19:41:03 10° N
METEOR-M 4.2 19:32:52 10° SSE 19:38:07 64° ENE 19:43:24 10° N
Cosmos 1933 3.7 19:34:17 10° N 19:38:22 71° W 19:42:26 10° S
Okean 1-7 3.3 19:34:37 10° N 19:38:48 48° E 19:43:00 10° SSE
Cosmos 2184 Rocket 4.4 19:33:53 10° SSE 19:39:36 41° E 19:45:19 10° NNE
ALOS 3.3 19:37:03 10° SE 19:40:58 27° ENE 19:44:54 10° NNE
USA 215 3.4 19:34:29 10° SE 19:41:00 71° NE 19:47:31 10° NNW
USA 186 3.7 19:40:35 10° ESE 19:42:13 14° ENE 19:43:54 10° NE
GPS 2-14 Rocket1 3.7 19:39:50 10° W 19:43:15 32° SSW 19:46:41 10° SE
Aureole 3 Rocket 3.8 19:39:10 10° NNW 19:43:42 51° W 19:47:09 10° SSW
H-2A R/B 4.1 19:42:32 10° SE 19:45:19 20° ENE 19:48:06 10° NNE
Cosmos 1356 Rocket 3.4 19:46:10 10° S 19:50:20 76° E 19:54:35 10° N
Meteor 1-26 Rocket 4.3 19:44:33 10° N 19:50:27 77° E 19:56:19 10° S
ISS -0.2 19:53:37 10° W 19:56:00 19° NW 19:58:23 10° N
Cosmos 1452 Rocket 3.8 19:54:19 10° S 19:59:19 46° E 20:04:19 10° NNE
Coronas F rocket 1.9 20:02:10 10° SSW 20:04:45 55° W 20:07:20 10° N
Resurs 01 Rocket 2.8 20:00:57 10° S 20:05:07 43° W 20:09:18 10° NNW
OAO 3 Rocket 4.2 20:01:40 10° W 20:06:29 50° NNW 20:11:17 10° NE
Cosmos 2181 Rocket 4.2 20:00:45 10° N 20:07:09 82° W 20:13:26 10° S
Delta 198 4.3 20:03:08 10° WNW 20:08:40 74° N 20:13:45 17° E
Cosmos 2074 Rocket 4.0 20:02:55 10° S 20:09:12 86° E 20:15:29 10° N
Sich 1 Rocket 4.0 20:06:11 10° SSE 20:10:31 44° E 20:14:51 10° NNE
Cosmos 1825 3.5 20:15:29 22° E 20:15:29 22° E 20:18:19 10° NE
ATLAS 5 CENTAUR R/B 2.8 20:12:16 10° NNW 20:18:19 48° ENE 20:22:10 23° SE
Cosmos 1610 Rocket 4.4 20:13:12 10° S 20:19:15 68° E 20:25:23 10° N
SL-08 ROCKET BODY 4.4 20:14:23 10° S 20:20:29 87° W 20:26:28 10° N
Atlas Centaur 2 3.0 20:18:02 10° NW 20:20:56 22° N 20:23:17 12° NE
Abrixas 2.5 20:20:53 10° SW 20:23:54 79° NW 20:26:54 10° NE
Meteor 2-6 Rocket 4.5 20:27:32 10° N 20:33:13 51° E 20:35:49 30° SE
Cosmos 1908 Rocket 3.5 20:30:14 18° S 20:33:21 66° E 20:37:43 10° NNE
Cosmos 1733 Rocket 4.3 20:30:03 10° SSW 20:34:14 42° W 20:38:24 10° NNW
CZ-4 DEB 3.0 20:35:05 50° ENE 20:35:05 50° ENE 20:37:59 10° N
Cosmos 1844 Rocket 4.5 20:30:27 10° SW 20:35:30 33° WNW 20:40:33 10° N
Cosmos 2278 Rocket 2.2 20:29:52 10° SSW 20:35:31 83° WNW 20:41:13 10° NNE
FENGYUN 3A 4.1 20:35:31 10° S 20:40:51 62° WSW 20:46:11 10° NNW
COSMOS 2406 3.1 20:36:15 10° NNW 20:41:59 82° ENE 20:44:46 32° SSE
CENTAUR R/B 3.1 20:34:54 10° NNW 20:43:07 87° WSW 20:48:35 25° SSE
SL-27 R/B 2.3 20:40:22 10° N 20:43:52 69° ENE 20:43:52 69° ENE
Abrixas rocket 3.6 20:42:42 10° WNW 20:45:44 31° SW 20:46:10 29° SW
Meteor 2-10 Rocket 4.1 20:42:06 10° NNW 20:47:43 62° W 20:52:21 14° S
BREEZE-M DEB (TANK) 4.5 20:46:03 10° N 20:47:50 21° NE 20:47:50 21° NE
Cosmos 2341 Rocket 3.9 20:49:30 21° S 20:53:52 72° E 21:00:07 10° N
ERBS 2.6 20:50:32 10° NW 20:53:38 64° WNW 20:53:38 64° WNW
deb Chang Zheng 4 3.7 20:51:44 10° N 20:56:10 78° WNW 20:58:30 28° SSW
Cosmos 1862 3.6 20:56:15 38° SSW 20:57:37 66° W 21:01:40 10° N
YAOGAN 11 4.2 20:59:46 52° S 21:00:46 74° WSW 21:05:18 10° NNW
Orbus 7S 4.4 20:56:41 10° WNW 21:01:14 42° N 21:01:14 42° N
H-2A R/B 2.9 21:03:59 39° NE 21:03:59 39° NE 21:07:04 10° N
SL-8 Rocket 4.2 21:03:35 46° E 21:03:35 46° E 21:09:28 10° NNE
Cosmos 962 Rocket 4.3 21:00:44 25° S 21:04:32 89° E 21:10:44 10° N
Envisat 2.9 21:09:40 66° ENE 21:09:40 66° ENE 21:14:32 10° N
Cosmos 1606 3.6 21:07:32 10° N 21:10:22 46° N 21:10:22 46° N
Cosmos 2297 3.7 21:06:23 10° SSW 21:12:02 82° WNW 21:17:46 10° NNE
Cosmos 1295 Rocket 4.4 21:20:35 59° S 21:21:56 88° E 21:28:15 10° N
ERS-1 Rocket 3.5 21:22:49 48° SW 21:23:33 53° W 21:28:27 10° NNW
Okean 2 Rocket 4.4 21:37:08 38° WNW 21:37:08 38° WNW 21:40:35 10° NNW
Cosmos 407 Rocket 4.5 21:34:16 10° NNW 21:39:13 41° W 21:39:29 40° WSW
H-2A R/B 4.5 21:44:09 12° NNE 21:44:09 12° NNE 21:44:42 10° NNE
Cosmos 2366 rocket 4.4 21:46:15 52° NNE 21:46:15 52° NNE 21:50:56 10° N
SPOT 5 4.3 22:02:17 38° NW 22:02:17 38° NW 22:05:54 10° NNW
CZ-3C R/B 2.6 21:39:11 10° W 22:02:02 73° SW 22:02:02 73° SW
ATLAS 5 CENTAUR R/B 4.3 21:58:14 10° WNW 22:02:46 20° WSW 22:03:46 20° WSW
USA 234 4.2 22:01:00 10° NNE 22:04:35 36° NNE 22:04:35 36° NNE
Cosmos 2082 Rocket 4.4 22:44:41 10° NNW 22:46:23 20° NNW 22:46:23 20° NNW
